Tracking 30696 objects as of 16-Jun-2025
HD Live streaming from Space Station
objects crossing your sky now

TITAN 3C TRANSTAGE DEB

Track TITAN 3C TRANSTAGE DEB now!
10-day predictions


NORAD ID: 26049
Int'l Code: 1965-108AH
Perigee: 458.2 km
Apogee: 13,136.5 km
Inclination: 27.2 °
Period: 250.6 minutes
Semi major axis: 13168 km
RCS: 0.0672 m2 (small)
Launch date: December 21, 1965
Source: United States (US)
Launch site: AIR FORCE EASTERN TEST RANGE (AFETR)

Note: This is SATELLITE DEBRIS
Your satellite tracking list
Your tracking list is empty




NASA's NSSDC Master Catalog

Two Line Element Set (TLE):
1 26049U 65108AH  25165.94580671  .00013442  00000-0  12430-1 0  9995
2 26049  27.2195 279.1549 4813906 203.5844 123.9356  5.74521856 88810
Source of the keplerian elements: AFSPC